Location: Wiesbaden
(50.0830°N, 8.2500°E)
Time: 23:50:06
(UTC+02:00)

ISS - Visible Passes

Search period start: 18 October 2019 00:00
Search period end: 27 October 2019 23:00
Orbit: 411 x 421 km, 51.6° (Epoch: 19 October)

Date Brightness Start Highest point End Pass type
(mag) Time Alt. Az. Time Alt. Az. Time Alt. Az.
24 Oct -0.5 06:50:54 10° SSE 06:51:55 11° SE 06:52:55 10° ESE visible
26 Oct -1.5 06:48:18 10° SSW 06:51:03 23° SE 06:53:48 10° E visible
27 Oct -1.1 05:00:52 11° S 05:02:37 16° SE 05:04:46 10° E visible
